Wind_Speed
29 25 27 25 23 21 20 18 18 18 17 14 13 12 13 8 12 24 26 25 24 24 25 23 21 21 19 18 18 16 13 12
29 26 20 24 23 22 22 21 20 18 17 16 15 14 15 9 13 16 29 26 26 25 23 21 21 20 19 19 21 17 15 14
21 25 23 25 24 22 22 21 20 19 18 19 15 16 17 17 14 26 30 27 26 25 24 22 21 21 20 21 21 18 16 16
23 21 17 26 24 21 22 23 21 21 19 18 16 16 15 19 18 16 28 28 28 26 24 24 23 23 24 23 23 20 19 17
29 27 18 19 22 24 23 25 24 24 22 19 17 15 17 19 11 18 24 29 28 25 24 25 25 24 24 23 23 22 20 20
32 32 27 29 28 26 24 26 25 28 27 23 19 18 17 18 22 23 19 31 29 26 26 26 27 26 24 22 21 22 21 20
37 31 32 34 32 32 30 28 28 28 30 27 22 21 19 23 22 17 27 34 29 29 28 26 28 28 27 24 23 23 23 21
49 44 42 38 36 36 35 34 32 33 31 30 27 23 21 22 20 19 25 35 31 33 33 29 30 30 30 28 26 25 26 24
53 49 46 43 41 37 36 33 33 33 34 32 31 25 25 24 20 22 16 34 32 29 30 31 32 34 32 30 28 28 27 26
54 54 53 51 48 46 44 38 32 33 36 32 34 29 28 27 26 19 21 27 35 27 28 29 30 33 33 34 33 31 30 29
57 55 53 52 51 49 48 44 34 32 36 35 34 33 31 31 27 31 30 28 35 32 31 31 32 33 33 34 33 34 34 32
60 59 57 55 52 50 50 48 44 37 36 37 38 35 34 32 31 26 30 28 29 42 38 32 31 32 34 34 34 35 35 33
62 63 61 58 56 54 51 50 48 44 40 40 40 40 37 35 35 35 34 34 31 33 45 42 38 38 36 38 37 37 36 34
65 62 64 64 60 57 54 53 49 47 45 46 42 43 41 38 37 37 39 29 27 35 33 47 43 42 41 38 41 39 37 36
67 66 62 65 65 63 58 55 52 48 48 50 48 46 43 40 39 42 42 25 32 32 35 32 37 41 43 40 47 40 40 40
70 68 67 64 65 64 64 60 56 52 49 52 52 48 47 44 41 39 36 34 32 34 37 29 34 39 43 34 46 44 46 46
72 70 68 67 66 66 64 64 60 56 53 49 54 53 50 47 45 43 38 46 30 34 34 37 33 44 44 39 43 44 50 47
74 71 70 70 68 67 66 64 62 60 56 53 53 57 52 51 50 46 47 42 35 37 33 29 34 38 48 52 43 50 50 48
74 73 71 71 71 70 68 66 64 63 60 56 55 57 55 54 51 51 49 46 46 35 39 33 32 37 44 51 47 43 48 51
74 73 71 70 70 71 70 68 66 64 63 61 59 57 58 52 54 52 52 48 44 32 38 37 31 29 49 43 47 50 45 59
Wind_Direction
234 242 235 233 233 231 239 242 245 242 240 237 233 220 216 222 246 230 192 191 187 177 180 180 182 187 185 187 188 187 187 186
229 234 249 250 242 238 235 237 245 249 244 237 229 220 225 210 264 229 206 201 198 189 182 180 185 190 189 187 187 188 192 190
223 228 235 242 243 242 243 245 241 246 249 245 230 226 221 231 254 242 211 207 205 199 189 180 181 185 185 184 190 192 189 194
229 229 240 239 241 243 247 247 240 241 245 246 245 226 225 221 241 226 224 203 208 204 192 184 184 188 185 188 195 197 199 201
247 252 240 254 250 251 250 254 253 247 249 246 241 234 218 228 261 258 210 198 205 208 201 195 193 193 190 195 199 204 203 202
240 244 245 250 246 250 247 246 255 252 251 250 239 240 220 219 244 256 221 196 201 208 208 205 199 198 199 195 200 202 203 203
245 238 240 243 246 247 252 252 254 255 254 251 244 235 233 235 236 241 198 201 202 204 209 210 204 201 203 201 204 210 211 209
242 243 245 242 244 245 249 250 255 255 253 252 249 242 237 235 241 215 204 199 205 204 208 212 214 213 207 212 213 215 215 213
242 241 238 237 242 245 248 248 251 249 250 254 250 246 239 223 224 233 248 217 208 209 216 217 221 214 214 218 217 218 217 215
241 240 239 241 241 243 245 251 249 243 246 249 251 246 246 236 233 228 252 216 208 211 218 225 224 218 223 224 227 223 216 216
241 240 239 239 240 241 243 243 240 239 241 237 245 243 243 240 227 223 234 227 212 217 226 227 228 229 219 221 226 222 216 213
238 241 240 238 237 237 240 241 236 233 237 240 236 241 239 237 234 234 236 251 236 224 222 225 226 222 225 222 227 220 217 213
232 236 241 240 238 237 237 240 237 234 235 238 236 235 237 237 236 231 236 234 241 227 217 221 222 224 226 224 225 220 214 214
233 230 234 240 239 239 237 238 236 234 234 236 233 233 234 236 237 236 233 259 242 231 227 227 225 230 230 225 222 217 215 213
239 233 229 234 238 239 238 239 238 231 231 233 233 230 232 234 238 241 238 239 238 238 227 230 227 228 228 234 222 219 215 214
239 238 232 229 234 236 238 237 237 233 228 232 236 232 230 229 234 242 234 251 247 242 236 242 236 231 230 234 215 215 214 213
237 237 236 230 230 234 235 237 236 236 230 226 233 235 232 227 230 234 241 240 253 246 240 236 234 228 226 225 216 215 221 217
236 235 234 234 228 231 234 235 236 236 233 227 228 234 231 230 229 231 244 228 243 238 238 239 240 229 224 224 227 220 220 221
237 236 234 232 233 228 230 232 234 235 234 231 227 230 231 229 229 230 231 240 246 234 244 247 245 234 224 224 225 220 219 216
235 235 235 232 231 231 228 230 231 234 234 231 231 228 230 231 229 231 231 235 243 226 243 239 233 231 221 217 225 226 230 222
Height
5813 5817 5818 5820 5821 5820 5822 5822 5823 5823 5823 5825 5825 5825 5826 5827 5832 5835 5834 5839 5842 5845 5848 5851 5854 5857 5859 5862 5867 5870 5871 5873
5809 5813 5817 5821 5820 5820 5819 5818 5819 5821 5821 5821 5822 5823 5823 5823 5827 5832 5832 5837 5840 5843 5846 5849 5852 5855 5858 5861 5865 5868 5870 5872
5804 5808 5811 5816 5818 5818 5818 5817 5816 5818 5819 5820 5819 5819 5820 5821 5824 5827 5830 5835 5837 5840 5843 5846 5849 5852 5856 5860 5864 5867 5869 5871
5798 5802 5805 5810 5812 5814 5815 5814 5815 5814 5816 5816 5817 5816 5817 5818 5820 5824 5827 5833 5834 5837 5841 5844 5846 5850 5853 5858 5861 5865 5867 5870
5790 5796 5799 5804 5806 5808 5810 5810 5812 5813 5812 5812 5814 5814 5814 5815 5816 5820 5824 5828 5831 5836 5839 5843 5845 5848 5851 5855 5859 5863 5866 5868
5785 5790 5794 5797 5799 5801 5803 5804 5807 5809 5809 5810 5811 5811 5811 5814 5815 5816 5819 5824 5828 5833 5838 5841 5843 5847 5850 5854 5857 5861 5864 5866
5777 5782 5787 5790 5792 5795 5797 5799 5802 5803 5804 5806 5807 5808 5809 5804 5808 5812 5813 5821 5824 5829 5834 5838 5841 5844 5848 5851 5855 5858 5862 5864
5769 5774 5779 5783 5785 5788 5791 5794 5796 5798 5798 5801 5804 5805 5806 5806 5807 5809 5810 5816 5821 5824 5829 5833 5838 5841 5845 5848 5851 5855 5858 5861
5757 5763 5768 5773 5776 5780 5783 5786 5789 5792 5793 5795 5798 5802 5803 5803 5800 5804 5806 5812 5816 5820 5825 5829 5833 5837 5841 5844 5848 5851 5855 5858
5744 5750 5756 5761 5766 5771 5775 5779 5782 5785 5786 5789 5791 5797 5799 5799 5800 5799 5802 5806 5811 5816 5821 5825 5829 5833 5837 5840 5843 5847 5851 5854
5732 5737 5743 5750 5755 5760 5765 5770 5775 5777 5779 5782 5784 5789 5793 5796 5795 5795 5798 5802 5806 5811 5816 5820 5823 5828 5831 5834 5838 5842 5846 5850
5718 5724 5731 5738 5743 5749 5754 5759 5765 5769 5773 5775 5778 5782 5785 5790 5791 5787 5793 5797 5802 5806 5810 5814 5818 5822 5825 5829 5833 5837 5842 5846
5704 5710 5717 5724 5731 5737 5743 5748 5755 5761 5765 5767 5771 5774 5778 5782 5785 5786 5785 5790 5796 5797 5801 5807 5811 5815 5819 5824 5828 5832 5836 5841
5688 5697 5704 5710 5717 5724 5731 5737 5744 5751 5756 5758 5762 5766 5770 5774 5777 5779 5780 5781 5786 5791 5794 5799 5803 5807 5813 5818 5821 5827 5832 5836
5669 5680 5690 5696 5702 5710 5718 5725 5732 5740 5745 5748 5752 5757 5761 5766 5769 5771 5775 5777 5781 5784 5786 5791 5794 5799 5805 5809 5815 5821 5826 5829
5651 5661 5672 5682 5688 5696 5704 5711 5719 5727 5734 5739 5744 5749 5752 5758 5761 5765 5770 5766 5772 5778 5780 5782 5786 5791 5796 5801 5805 5812 5814 5820
5635 5644 5654 5666 5674 5681 5690 5697 5706 5714 5722 5729 5733 5738 5744 5750 5754 5758 5763 5764 5767 5771 5774 5776 5778 5783 5788 5795 5800 5805 5809 5813
5617 5628 5638 5648 5659 5667 5674 5683 5692 5701 5710 5718 5723 5726 5733 5739 5745 5750 5747 5754 5755 5761 5766 5768 5771 5774 5780 5786 5792 5798 5802 5807
5600 5610 5621 5632 5641 5652 5660 5669 5678 5686 5696 5705 5712 5715 5721 5729 5735 5739 5744 5747 5749 5752 5757 5761 5764 5766 5772 5777 5783 5789 5794 5799
5582 5593 5604 5616 5625 5636 5646 5654 5664 5673 5681 5691 5699 5706 5710 5718 5724 5729 5735 5739 5742 5745 5750 5753 5756 5758 5761 5765 5773 5779 5783 5789